When you browse on this site, cookies collect data to enhance your experience and personalize the content and advertising you see.
Visit our Privacy Policy to learn more. By continuing to use the site, you agree to this use of cookies and data.
  • In Hungary
  • List of Countries
  • For 7 days
  • Water Temperature
  • Satellite Maps
  • Weather Map
  • News
  • Weather Widgets
  • user-avatar
    Login

    Hourly Weather Reading

    Today, 22 January, Tuesday

    Time Temperature Precipitation Wind Pressure Humidity
    00:00 +5°C° 0 mm 5 mps 752 mmHg 91%
    01:00 +3°C° 1.4 mm 5 mps 751 mmHg 90%
    02:00 +3°C° 1.4 mm 6 mps 750 mmHg 89%
    03:00 +3°C° 1.4 mm 6 mps 749 mmHg 87%
    04:00 +2°C° 0 mm 5 mps 749 mmHg 87%
    05:00 +1°C° 0 mm 4 mps 749 mmHg 87%
    06:00 +1°C° 0 mm 2 mps 749 mmHg 90%
    07:00 0°C° 0 mm 3 mps 749 mmHg 89%
    08:00 0°C° 0 mm 3 mps 749 mmHg 89%
    09:00 0°C° 0 mm 3 mps 748 mmHg 88%
    10:00 +1°C° 0 mm 3 mps 748 mmHg 82%
    11:00 +3°C° 0 mm 4 mps 748 mmHg 76%
    12:00 +4°C° 0 mm 3 mps 747 mmHg 70%
    13:00 +4°C° 0.2 mm 3 mps 747 mmHg 73%
    14:00 +5°C° 0.2 mm 2 mps 746 mmHg 77%
    15:00 +4°C° 0.2 mm 2 mps 746 mmHg 80%
    16:00 +4°C° 0.6 mm 2 mps 745 mmHg 83%
    17:00 +2°C° 0.6 mm 3 mps 745 mmHg 87%
    18:00 +2°C° 0.6 mm 3 mps 745 mmHg 90%
    19:00 +1°C° 0 mm 3 mps 744 mmHg 90%
    20:00 0°C° 0 mm 3 mps 744 mmHg 90%
    21:00 -2°C° 0 mm 4 mps 744 mmHg 90%
    22:00 -2°C° 0 mm 4 mps 744 mmHg 90%
    23:00 -2°C° 0 mm 4 mps 744 mmHg 90%

    Tomorrow, 23 January, Wednesday

    Time Temperature Precipitation Wind Pressure Humidity
    00:00 -2°C° 0 mm 4 mps 744 mmHg 90%
    01:00 -2°C° 0 mm 4 mps 744 mmHg 90%
    02:00 -2°C° 0 mm 4 mps 744 mmHg 90%
    03:00 -3°C° 0 mm 4 mps 744 mmHg 90%
    04:00 -3°C° 0 mm 4 mps 744 mmHg 90%
    05:00 -3°C° 0 mm 4 mps 745 mmHg 89%
    06:00 -3°C° 0 mm 4 mps 745 mmHg 89%
    07:00 -2°C° 0 mm 4 mps 746 mmHg 88%
    08:00 -2°C° 0 mm 4 mps 746 mmHg 86%
    09:00 -2°C° 0 mm 4 mps 747 mmHg 85%
    10:00 -1°C° 0 mm 4 mps 747 mmHg 80%
    11:00 0°C° 0 mm 4 mps 748 mmHg 75%
    12:00 +1°C° 0 mm 4 mps 749 mmHg 70%
    13:00 +1°C° 0 mm 4 mps 749 mmHg 71%
    14:00 +1°C° 0 mm 4 mps 749 mmHg 71%
    15:00 +1°C° 0 mm 4 mps 749 mmHg 71%
    16:00 +1°C° 0 mm 3 mps 750 mmHg 77%
    17:00 0°C° 0 mm 3 mps 750 mmHg 82%
    18:00 -1°C° 0 mm 2 mps 751 mmHg 88%
    19:00 -1°C° 0 mm 2 mps 751 mmHg 88%
    20:00 -1°C° 0 mm 2 mps 751 mmHg 88%
    21:00 -1°C° 0 mm 2 mps 752 mmHg 88%
    22:00 -1°C° 0 mm 2 mps 752 mmHg 88%
    23:00 -1°C° 0 mm 2 mps 752 mmHg 88%

    Day after tomorrow, 24 January, Thursday

    Time Temperature Precipitation Wind Pressure Humidity
    00:00 +1°C° 0 mm 1 mps 753 mmHg 87%
    01:00 -1°C° 0 mm 2 mps 753 mmHg 88%
    02:00 -1°C° 0 mm 2 mps 753 mmHg 89%
    03:00 -1°C° 0 mm 2 mps 753 mmHg 89%
    04:00 -1°C° 0 mm 2 mps 753 mmHg 90%
    05:00 -1°C° 0 mm 2 mps 752 mmHg 90%
    06:00 -1°C° 0 mm 2 mps 752 mmHg 90%
    07:00 0°C° 0.5 mm 3 mps 752 mmHg 90%
    08:00 +1°C° 0.5 mm 3 mps 753 mmHg 91%
    09:00 +1°C° 0.5 mm 4 mps 753 mmHg 92%
    10:00 +3°C° 0 mm 4 mps 753 mmHg 88%
    11:00 +3°C° 0 mm 5 mps 753 mmHg 84%
    12:00 +5°C° 0 mm 5 mps 753 mmHg 80%
    13:00 +5°C° 0 mm 5 mps 753 mmHg 79%
    14:00 +5°C° 0 mm 4 mps 753 mmHg 78%
    15:00 +4°C° 0 mm 4 mps 753 mmHg 77%
    16:00 +3°C° 0 mm 4 mps 754 mmHg 81%
    17:00 +1°C° 0 mm 4 mps 755 mmHg 86%
    18:00 0°C° 0 mm 3 mps 755 mmHg 90%
    19:00 0°C° 0 mm 3 mps 756 mmHg 91%
    20:00 0°C° 0 mm 3 mps 756 mmHg 92%
    21:00 -1°C° 0 mm 3 mps 757 mmHg 94%
    22:00 -1°C° 0 mm 3 mps 757 mmHg 94%
    23:00 -1°C° 0 mm 3 mps 758 mmHg 95%

    25 January, Friday

    Time Temperature Precipitation Wind Pressure Humidity
    00:00 -1°C° 0 mm 2 mps 758 mmHg 95%
    01:00 -2°C° 0 mm 2 mps 758 mmHg 95%
    02:00 -2°C° 0 mm 2 mps 759 mmHg 94%
    03:00 -2°C° 0 mm 2 mps 759 mmHg 94%
    04:00 -2°C° 0 mm 2 mps 759 mmHg 94%
    05:00 0°C° 0 mm 1 mps 760 mmHg 93%
    06:00 0°C° 0 mm 1 mps 760 mmHg 93%
    07:00 +1°C° 0 mm 1 mps 761 mmHg 91%
    08:00 +2°C° 0 mm 1 mps 761 mmHg 89%
    09:00 +1°C° 0 mm 0 mps 761 mmHg 87%
    10:00 +2°C° 0 mm 0 mps 762 mmHg 83%
    11:00 +3°C° 0 mm 0 mps 762 mmHg 78%
    12:00 +4°C° 0 mm 0 mps 762 mmHg 74%
    13:00 +5°C° 0 mm 1 mps 762 mmHg 75%
    14:00 +6°C° 0 mm 1 mps 762 mmHg 75%
    15:00 +6°C° 0 mm 1 mps 762 mmHg 76%
    16:00 +5°C° 0 mm 1 mps 762 mmHg 78%
    17:00 +3°C° 0 mm 2 mps 763 mmHg 80%
    18:00 +3°C° 0 mm 2 mps 763 mmHg 82%
    19:00 +3°C° 0 mm 2 mps 763 mmHg 84%
    20:00 +3°C° 0 mm 2 mps 763 mmHg 85%
    21:00 +3°C° 0 mm 2 mps 763 mmHg 86%
    22:00 +2°C° 0.1 mm 3 mps 763 mmHg 88%
    23:00 +3°C° 0.1 mm 3 mps 762 mmHg 89%

    26 January, Saturday

    Time Temperature Precipitation Wind Pressure Humidity
    00:00 +3°C° 0.1 mm 3 mps 762 mmHg 91%
    01:00 +3°C° 0.1 mm 4 mps 762 mmHg 92%
    02:00 +4°C° 0.1 mm 4 mps 761 mmHg 93%
    03:00 +4°C° 0.1 mm 4 mps 761 mmHg 94%
    04:00 +4°C° 0.1 mm 4 mps 760 mmHg 95%
    05:00 +5°C° 0.1 mm 4 mps 759 mmHg 96%
    06:00 +5°C° 0.1 mm 4 mps 759 mmHg 97%
    07:00 +5°C° 0.1 mm 4 mps 758 mmHg 96%
    08:00 +5°C° 0.1 mm 4 mps 758 mmHg 95%
    09:00 +5°C° 0.1 mm 4 mps 757 mmHg 94%
    10:00 +6°C° 0 mm 5 mps 756 mmHg 91%
    11:00 +5°C° 0 mm 6 mps 755 mmHg 88%
    12:00 +6°C° 0 mm 7 mps 754 mmHg 85%
    13:00 +6°C° 0.4 mm 7 mps 753 mmHg 85%
    14:00 +6°C° 0.4 mm 7 mps 751 mmHg 85%
    15:00 +7°C° 0.4 mm 8 mps 750 mmHg 85%
    16:00 +6°C° 0 mm 8 mps 750 mmHg 84%
    17:00 +6°C° 0 mm 9 mps 749 mmHg 83%
    18:00 +5°C° 0 mm 9 mps 749 mmHg 81%
    19:00 +3°C° 0 mm 9 mps 750 mmHg 79%
    20:00 +2°C° 0 mm 8 mps 750 mmHg 76%
    21:00 +1°C° 0 mm 8 mps 751 mmHg 74%
    22:00 +1°C° 0 mm 8 mps 751 mmHg 75%
    23:00 +1°C° 0 mm 8 mps 752 mmHg 75%

    27 January, Sunday

    Time Temperature Precipitation Wind Pressure Humidity
    00:00 +1°C° 0 mm 8 mps 752 mmHg 76%
    01:00 0°C° 0 mm 8 mps 752 mmHg 78%
    02:00 0°C° 0 mm 7 mps 753 mmHg 79%
    03:00 0°C° 0 mm 7 mps 753 mmHg 81%
    04:00 +1°C° 0 mm 6 mps 753 mmHg 81%
    05:00 -1°C° 0 mm 6 mps 754 mmHg 82%
    06:00 0°C° 0 mm 5 mps 755 mmHg 82%
    07:00 0°C° 0 mm 5 mps 755 mmHg 82%
    08:00 0°C° 0 mm 5 mps 756 mmHg 82%
    09:00 0°C° 0 mm 5 mps 756 mmHg 81%
    10:00 +1°C° 0 mm 6 mps 756 mmHg 73%
    11:00 +2°C° 0 mm 7 mps 756 mmHg 65%
    12:00 +1°C° 0 mm 8 mps 756 mmHg 57%
    13:00 +2°C° 0 mm 7 mps 756 mmHg 57%
    14:00 +2°C° 0 mm 7 mps 756 mmHg 58%
    15:00 +2°C° 0 mm 6 mps 756 mmHg 58%
    16:00 +1°C° 0 mm 5 mps 757 mmHg 63%
    17:00 0°C° 0 mm 5 mps 757 mmHg 67%
    18:00 -1°C° 0 mm 4 mps 757 mmHg 72%
    19:00 -1°C° 0 mm 4 mps 758 mmHg 72%
    20:00 -2°C° 0 mm 5 mps 758 mmHg 72%
    21:00 -2°C° 0 mm 5 mps 759 mmHg 71%
    22:00 -2°C° 0 mm 5 mps 759 mmHg 71%
    23:00 -2°C° 0 mm 5 mps 759 mmHg 71%
    Show more